Theta_e
309 306 305 304 302 301 301 301 302 302 302 301 300 299 299 297 298 296 296 296 296 293
306 305 304 303 303 301 302 301 300 300 299 299 299 298 296 295 294 294 294 294 294 293
304 305 304 303 301 300 300 299 299 298 298 298 297 297 296 294 295 294 294 294 294 293
303 303 302 301 299 298 298 297 296 297 296 296 295 295 295 293 294 292 291 292 292 292
302 300 299 299 297 297 296 296 295 295 294 294 294 294 293 292 292 291 290 290 290 290
299 298 297 296 296 296 295 295 294 292 291 290 290 289 289 289 289 287 286 287 287 287
298 296 295 295 294 294 293 292 291 291 291 290 290 289 288 288 286 286 285 285 285 285
298 296 296 295 294 293 292 291 290 290 289 289 289 287 285 285 284 283 283 283 284 285
298 296 295 294 293 292 291 290 289 289 288 288 288 285 284 283 281 282 282 280 281 283
296 295 295 294 292 290 289 289 288 288 288 287 286 286 285 283 281 280 280 280 280 281
296 295 294 293 292 290 289 288 287 287 287 285 286 286 286 283 280 279 279 279 279 280
295 293 292 291 291 289 288 287 287 287 285 284 283 286 285 283 279 279 278 279 280 281
293 293 292 291 290 288 287 287 286 285 284 285 283 285 285 282 279 276 278 279 280 281
293 291 291 290 289 287 286 285 284 283 283 283 283 282 283 282 279 277 277 277 277 279
Wind_Speed
8 5 5 6 5 3 3 4 6 9 9 8 7 6 7 5 4 5 5 5 4 4
7 7 5 4 3 3 5 8 9 7 9 8 7 6 6 5 6 5 6 7 6 5
5 4 4 4 5 7 7 8 9 8 10 10 9 9 10 7 7 7 5 6 6 8
5 4 5 4 6 6 6 8 7 8 8 8 8 5 3 8 9 7 8 7 8 8
6 6 7 6 6 5 5 5 7 6 7 7 7 6 8 9 9 9 8 9 10 10
5 6 7 6 4 5 5 6 6 7 7 8 7 8 7 7 7 9 9 11 13 13
3 2 3 5 5 6 6 6 6 6 7 7 8 10 8 9 9 8 9 11 14 15
4 4 5 3 3 5 6 6 6 7 7 7 7 6 6 7 8 9 11 10 12 14
9 4 5 4 5 5 5 5 6 6 6 6 6 9 9 9 8 10 11 12 13 13
7 5 6 5 6 8 6 6 6 6 5 5 5 7 11 9 6 8 10 13 13 13
4 6 8 3 4 8 6 5 6 5 5 5 6 14 13 8 6 7 9 12 13 14
4 7 6 5 6 7 5 5 4 5 7 7 7 12 11 9 5 7 9 11 12 13
9 7 5 5 6 4 4 4 4 4 5 8 8 9 13 11 4 7 9 10 12 18
8 10 7 4 4 4 4 3 4 3 4 6 6 6 13 11 6 7 8 9 10 9
Wind_Direction
37 28 19 23 3 326 346 328 322 352 343 14 27 15 19 1 353 5 343 309 281 263
27 17 6 356 326 321 350 354 359 360 354 349 5 7 10 342 323 334 304 285 270 269
340 335 340 343 339 32 3 347 341 359 356 342 349 349 334 317 306 311 300 290 308 299
324 345 338 360 36 20 0 352 337 324 307 309 304 301 291 274 288 298 300 296 285 291
341 7 350 1 11 353 317 302 312 301 300 283 280 260 260 265 270 267 276 306 301 293
359 2 355 327 324 318 314 299 317 333 318 321 308 300 298 307 341 2 345 333 328 316
13 314 285 297 355 342 329 324 322 320 320 316 322 322 12 354 346 340 334 329 320 314
231 225 252 359 354 325 314 318 332 326 319 317 314 36 18 1 344 331 321 314 305 301
307 268 8 357 323 310 310 328 313 313 314 322 347 72 36 19 338 328 322 309 300 294
25 344 292 280 333 324 323 304 303 301 313 357 11 52 19 349 323 310 318 308 306 306
310 256 259 41 339 297 295 300 299 332 4 357 343 346 339 336 309 314 310 309 309 306
177 281 343 14 329 284 302 303 14 8 1 351 331 315 345 303 313 305 309 302 299 297
329 324 348 340 284 293 311 18 57 17 346 325 319 341 341 343 321 311 313 312 308 304
337 335 312 292 308 331 352 18 67 26 321 313 319 7 342 345 336 330 323 314 310 305